[ ตารางข้อมูล ] [ Min-Max ] [ วันนี้4 ] [ วันนี้2 ] [ เทียบ3วัน A ] [ เทียบ4วัน B ]   

วันนี้2   [ ◀ ช่วงเก่ากว่า ] [ ช่วงที่ 282 ] [ ช่วงใหม่กว่า ▶ ] [ ล่าสุด ]    [ 3 ชั่วโมง ] [ 6 ชั่วโมง ] [ 12 ชั่วโมง ] [ 24 ชั่วโมง ]   วันนี้2

อุณภูมิตู้ Knockdown4529  ราย 3 ชั่วโมง  ที่วัดได้ ในช่วงวันเวลา 02/04/2026 (18:55) ถึง 02/04/2026 (21:55) 
ความชื้นในตู้ Knockdown4529  ราย 3 ชั่วโมง  ที่วัดได้ ในช่วงวันเวลา 02/04/2026 (18:55) ถึง 02/04/2026 (21:55) 

 
DS18B20SHTC3 
IDDate d/m/Y & Timedata1
สูง
data2
ต่ำ
data3
นอก
temp
pcb
hum
pcb
Time
 8230  02/04/2026 21:51:16  29.2  29.2  28.2  29.1  71.6  21:51 
 8229  02/04/2026 21:46:34  29.2  29.2  28.2  29.0  71.6  21:46 
 8228  02/04/2026 21:41:52  29.2  29.2  28.2  29.0  71.7  21:41 
 8227  02/04/2026 21:37:10  29.3  29.2  28.2  29.1  71.6  21:37 
 8226  02/04/2026 21:32:29  29.3  29.3  28.2  29.2  71.6  21:32 
 8225  02/04/2026 21:27:47  29.2  29.3  28.2  29.1  71.5  21:27 
 8224  02/04/2026 21:23:07  29.3  29.3  28.2  29.1  71.4  21:23 
 8223  02/04/2026 21:18:25  29.3  29.3  28.2  29.2  71.5  21:18 
 8222  02/04/2026 21:13:43  29.4  29.4  28.2  29.2  71.5  21:13 
 8221  02/04/2026 21:09:01  29.4  29.4  28.2  29.2  71.4  21:09 
 8220  02/04/2026 21:04:19  29.4  29.4  28.2  29.2  71.4  21:04 
 8219  02/04/2026 20:59:37  29.4  29.4  28.2  29.3  71.3  20:59 
 8218  02/04/2026 20:54:56  29.4  29.4  28.2  29.4  71.4  20:54 
 8217  02/04/2026 20:50:14  29.4  29.4  28.3  29.4  71.4  20:50 
 8216  02/04/2026 20:45:32  29.5  29.5  28.3  29.4  71.3  20:45 
 8215  02/04/2026 20:40:51  29.5  29.5  28.4  29.4  71.3  20:40 
 8214  02/04/2026 20:36:09  29.5  29.5  28.3  29.4  71.3  20:36 
 8213  02/04/2026 20:31:28  29.5  29.6  28.4  29.4  71.2  20:31 
 8212  02/04/2026 20:26:47  29.6  29.6  28.4  29.4  71.2  20:26 
 8211  02/04/2026 20:22:04  29.6  29.6  28.4  29.4  71.0  20:22 
 8210  02/04/2026 20:17:23  29.6  29.6  28.4  29.5  71.2  20:17 
 8209  02/04/2026 20:12:42  29.6  29.6  28.4  29.5  71.1  20:12 
 8208  02/04/2026 20:08:00  29.6  29.6  28.4  29.5  71.1  20:08 
 8207  02/04/2026 20:03:20  29.6  29.6  28.4  29.5  71.0  20:03 

Data every 5 minute.


ใช้เวลาประมวลผล 0.00186 วินาที